Dewpoint
-7 -1 2 4 2 -0 -0 -3 -7 -6 -8 -9 -7 -0 2 11 14 16 14 13 11 11 10 10 0 -3 -1 1 3 6 8 8 9 10 11 11 9 8 4 -0 0 1 2 2 3 4 6 6 6
-5 -1 1 2 1 1 -3 -8 -5 -8 -9 -10 -10 -6 -6 11 13 14 13 12 9 12 12 11 4 -0 -1 1 2 5 7 8 8 9 9 10 9 8 5 -0 0 1 1 1 2 3 4 4 5
-2 0 1 -1 0 -1 -4 -12 -8 -8 -10 -10 -10 -11 -8 11 13 15 14 12 10 13 12 11 7 2 1 3 3 4 6 7 7 8 9 9 9 8 6 0 1 2 1 1 0 2 2 2 2
1 1 -0 -1 -1 -4 -6 -11 -11 -10 -10 -10 -9 -11 6 7 9 13 10 10 12 11 12 13 9 4 4 4 5 6 6 6 6 7 8 9 8 8 6 1 2 3 1 -1 -3 -1 -0 -1 -2
0 1 -3 -4 -4 -6 -9 -9 -9 -7 -7 -8 -8 -8 7 10 11 8 5 9 14 14 13 14 9 6 6 6 6 7 7 8 8 7 8 9 8 7 5 1 3 4 2 -2 -5 -4 -4 -6 -7
-2 -2 -1 -2 -4 -5 -6 -7 -7 -7 -7 -8 -6 -6 10 10 8 9 0 7 14 14 14 14 13 8 8 7 7 8 9 9 9 9 8 8 8 7 5 2 4 4 3 -3 -5 -7 -8 -10 -12
-3 -2 -0 -1 -2 -3 -5 -7 -6 -7 -7 -7 -6 -5 7 10 8 7 5 -3 14 14 14 14 14 11 9 9 9 9 9 10 10 10 10 10 9 8 5 3 5 6 4 -3 -6 -9 -11 -13 -16
-3 -3 -1 -2 -2 -3 -6 -5 -7 -5 -5 -5 -6 -5 -1 7 4 2 2 3 5 14 14 14 14 14 12 9 10 10 10 10 10 10 10 9 9 8 5 3 6 7 5 -1 -5 -10 -13 -18 -22
-4 -3 -1 -2 -3 -5 -4 -3 -3 -4 -4 -4 -4 -3 -2 2 5 1 2 5 6 11 12 13 14 15 15 9 10 11 11 11 11 11 11 10 9 8 5 4 7 7 6 0 -5 -11 -14 -22 -23
-3 -1 -2 -4 -4 -3 -3 -3 -3 -3 -3 -3 -2 -2 -1 4 3 2 3 3 7 7 8 7 6 9 13 12 8 11 12 12 12 12 11 11 10 8 6 6 7 8 8 1 -4 -11 -16 -23 -22
-1 -1 -3 -3 -3 -3 -2 -2 -2 -1 -1 -2 -1 -0 -1 -1 -1 1 2 2 2 4 8 9 8 7 5 11 6 7 9 10 12 12 11 11 11 10 8 8 8 8 8 3 -4 -12 -18 -22 -21
0 -1 -2 -2 -2 -2 -2 -2 -1 -0 -0 -0 -0 -0 -1 -2 -2 -1 -1 -1 0 4 5 7 9 8 7 6 9 7 5 8 10 9 11 13 12 12 12 12 10 9 9 5 -3 -12 -19 -20 -18
2 1 1 1 0 -0 0 1 0 -0 -1 -1 -1 -1 -2 -2 -0 -0 0 0 -1 0 5 6 8 9 9 8 8 11 12 12 11 13 13 13 13 13 12 11 9 9 9 7 -2 -12 -18 -15 -14
2 2 2 1 1 1 1 1 0 -1 -1 -1 -2 -3 -2 -2 -2 -2 -1 -1 -0 0 6 8 8 7 8 9 9 10 13 13 13 12 12 12 13 12 12 12 12 11 10 8 0 -13 -16 -12 -7
2 3 2 2 1 1 1 2 0 -1 -2 -4 -3 -3 -2 -4 -2 -2 -2 -1 0 1 3 3 1 5 7 8 10 11 11 13 14 13 13 12 13 12 12 12 11 11 10 7 -2 -11 -14 -7 -3
3 3 5 2 1 0 0 3 -2 -3 -5 -5 -4 -3 -5 -3 -3 0 2 2 2 2 1 3 8 7 9 8 10 11 11 11 13 14 14 13 13 13 12 12 11 11 11 7 -1 -5 -8 -5 -4
3 5 3 2 -1 -1 -1 1 -2 -5 -5 -5 -5 -4 -5 -1 2 2 2 3 3 2 2 7 11 11 11 11 11 12 12 13 12 13 13 13 13 13 12 12 12 11 11 8 5 2 -2 -2 -3
4 4 2 2 -1 -3 -3 -5 -7 -6 -5 -5 -5 -5 -4 2 2 2 3 3 3 3 3 4 6 12 13 14 14 13 13 13 12 12 12 12 12 13 13 12 12 11 10 7 6 4 2 -0 -2
3 2 2 0 -2 -2 -2 -5 -6 -5 -4 -4 -4 -3 2 1 1 1 1 -0 2 3 3 1 3 6 9 11 13 13 14 13 13 12 12 12 11 12 13 13 13 12 9 7 6 5 2 1 1
3 3 2 1 -1 -1 -3 -1 -2 -3 -3 -4 0 2 1 0 -0 -0 -0 -0 -1 -0 -0 -4 -0 1 2 4 6 8 12 13 13 13 13 13 12 11 12 13 13 12 10 8 6 4 2 1 3
2 3 2 2 -1 -1 -1 -0 -1 -2 1 1 1 -0 -1 -2 -1 -2 -2 -1 -1 0 1 1 -1 -4 -4 2 4 6 11 12 12 12 12 13 12 12 11 11 12 12 10 10 5 4 3 1 3
3 0 0 0 1 4 -1 4 -2 -2 2 -0 -2 -4 -4 -3 -3 -5 -5 -5 -2 -1 -2 -2 -1 -1 -5 -7 2 3 4 5 6 11 11 11 12 11 12 12 12 11 11 10 8 5 4 2 2
3 1 1 1 2 2 1 3 1 -2 3 1 -3 -5 -6 -6 -6 -7 -7 -7 -7 -6 -5 -2 -0 1 1 -0 -4 -0 0 -0 -0 0 2 3 8 11 11 11 10 11 11 11 8 5 4 3 1
-1 1 1 1 1 4 2 2 2 -1 1 -1 -5 -6 -6 -6 -7 -7 -9 -9 -8 -7 -6 -4 -3 -2 -1 1 2 -0 1 2 3 2 1 -1 0 3 6 9 10 11 10 10 8 5 4 4 1
-1 1 8 5 6 5 1 3 2 0 -0 -4 -5 -6 -7 -8 -11 -14 -13 -12 -9 -8 -3 -3 -3 -2 -2 -1 0 2 1 0 -1 -6 -6 -1 -1 0 1 3 6 9 9 9 8 7 4 4 3
-1 1 6 8 8 6 1 3 1 -1 -3 -4 -4 -8 -12 -13 -14 -14 -14 -11 -7 -5 -6 -7 -4 -4 -3 -1 -1 -2 -0 -0 -2 -5 -4 -3 1 2 2 5 4 6 7 8 8 7 6 4 4
-0 2 -0 5 5 6 3 0 -2 -4 -5 -7 -8 -10 -11 -12 -13 -16 -10 -9 -9 -9 -8 -7 -4 -3 -1 2 1 0 -1 -2 -1 1 2 2 0 2 4 4 5 5 6 7 7 8 6 5 4
-2 -0 4 7 9 8 5 3 3 -2 -5 -6 -7 -9 -10 -12 -13 -14 -12 -10 -8 -8 -6 -4 -5 -5 -5 -5 -6 -7 -6 -3 2 4 3 2 1 3 4 4 4 5 5 6 7 7 6 5 5
-0 1 3 4 6 6 6 5 -0 -3 -5 -6 -8 -9 -11 -13 -15 -11 -9 -9 -10 -8 -7 -7 -8 -7 -6 -8 -7 -4 -3 3 4 4 3 1 2 3 3 3 3 2 5 6 6 6 5 5 4
-1 1 5 7 4 4 3 4 -5 -5 -6 -8 -9 -9 -12 -13 -10 -10 -11 -11 -8 -7 -7 -8 -8 -10 -6 -3 -2 -1 -0 2 3 2 2 2 3 3 3 2 2 4 5 6 6 5 4 4 4
Wind_Speed
12 6 9 8 3 4 4 7 2 6 5 7 7 5 1 13 4 4 12 12 11 8 9 9 21 22 22 21 19 19 20 19 17 15 12 11 8 5 3 3 3 3 2 3 4 6 6 6 7
7 3 10 6 3 1 6 6 10 7 10 8 9 7 8 3 9 11 11 11 9 8 10 11 21 23 23 22 21 19 19 18 17 15 13 12 9 7 5 4 3 1 0 1 2 3 4 5 6
5 7 4 3 3 5 4 5 7 6 12 7 3 9 4 3 11 10 4 11 9 7 10 10 20 25 23 22 21 20 19 18 17 15 14 13 10 9 7 7 5 3 1 0 1 2 3 4 6
7 4 6 1 10 10 2 5 7 9 11 12 16 4 7 4 5 6 1 7 9 8 11 6 19 26 25 23 21 20 19 18 16 15 15 14 12 10 9 9 7 5 3 2 1 2 3 4 6
7 6 1 3 10 7 8 6 15 7 7 12 14 7 8 10 8 5 3 4 8 9 12 8 15 26 26 24 23 21 19 18 17 16 16 15 13 12 12 11 9 7 4 2 3 4 4 5 6
5 3 1 5 7 6 6 5 12 9 7 8 9 8 9 11 2 2 4 6 10 11 13 12 6 24 26 25 23 21 20 18 17 17 16 16 15 14 14 13 12 9 6 4 5 6 5 5 7
6 1 5 5 6 8 7 3 4 4 1 3 4 3 11 11 6 5 4 2 13 13 14 13 10 11 24 25 24 22 21 20 19 18 17 17 17 17 16 15 14 11 8 7 7 7 6 6 7
15 2 4 5 6 11 8 15 6 10 4 12 5 2 4 11 7 5 8 6 5 14 14 14 12 12 16 26 27 25 23 22 22 21 21 21 20 20 19 17 16 14 11 9 9 8 7 7 8
14 0 5 5 6 8 20 12 20 15 15 15 14 14 16 16 11 8 10 4 4 12 14 16 15 13 16 26 28 27 26 24 23 24 24 24 24 23 22 20 17 16 14 12 11 10 9 8 9
7 4 7 8 11 7 16 15 18 17 18 12 16 17 17 5 11 11 11 8 7 9 13 11 13 16 12 23 29 29 28 28 28 28 27 27 26 26 24 23 21 19 17 15 14 13 11 11 13
10 10 9 19 27 24 12 13 19 12 5 17 19 22 19 17 13 11 13 13 11 12 16 15 12 10 12 18 28 31 32 30 31 31 30 29 29 29 26 26 24 23 21 19 17 16 13 14 16
5 17 16 16 23 24 9 22 12 12 20 24 24 23 23 21 17 19 17 16 14 18 18 18 16 12 10 12 23 28 29 30 30 31 30 31 29 27 28 27 25 25 24 22 20 18 16 17 20
9 9 21 25 25 18 17 9 11 19 28 28 26 24 21 6 1 5 9 12 13 13 21 19 17 15 12 11 16 22 24 26 29 33 32 32 30 29 31 30 27 27 25 24 23 22 22 23 25
12 21 22 21 23 23 13 12 23 29 32 28 23 15 5 3 2 6 8 9 9 10 11 15 17 15 15 15 14 19 25 26 28 30 32 33 32 30 32 30 29 28 27 27 27 25 26 25 25
11 8 10 11 17 12 23 11 15 32 23 16 21 8 6 5 8 6 4 5 8 10 11 17 18 19 18 17 16 16 22 27 30 30 33 30 34 31 33 33 33 31 28 27 27 28 30 28 28
5 5 5 6 18 25 14 16 10 17 2 4 6 7 3 4 8 11 18 13 6 8 2 7 14 16 18 17 18 18 18 22 28 32 33 36 35 34 36 37 36 34 30 26 28 31 32 31 31
6 6 10 14 18 12 12 7 13 18 11 11 11 17 12 10 15 10 12 13 12 11 11 17 6 7 15 19 19 20 21 26 27 31 34 34 37 36 38 41 39 37 34 33 32 33 34 32 33
6 8 9 11 9 4 5 5 6 9 10 13 15 17 8 22 21 15 14 11 9 8 11 15 14 6 9 17 19 22 24 29 31 31 33 36 37 40 44 44 42 40 38 37 37 36 34 33 34
8 11 15 14 10 6 7 7 10 13 14 13 18 6 25 25 20 13 13 11 7 5 4 13 16 14 7 9 17 23 27 28 33 36 36 37 37 38 45 46 45 46 43 46 46 42 39 35 37
16 17 17 9 12 10 8 6 5 12 14 17 17 26 24 23 20 18 16 13 13 11 9 9 10 15 16 12 14 17 22 29 31 32 35 42 42 35 44 49 52 49 51 52 52 49 44 43 45
17 15 11 11 5 8 9 9 8 10 9 23 28 27 21 21 19 17 18 14 13 10 9 10 13 19 20 20 21 14 12 21 28 30 35 37 36 43 44 45 49 50 59 56 57 55 52 54 52
12 6 8 6 4 5 3 5 4 6 8 11 20 21 21 22 22 19 17 15 13 11 12 15 16 17 14 18 25 24 20 21 20 23 33 41 43 42 47 51 49 49 60 60 67 63 60 57 60
10 5 5 6 6 4 3 5 6 20 10 10 10 22 20 16 15 14 12 10 7 9 13 12 13 16 13 14 21 31 30 26 26 24 27 28 31 47 50 46 48 58 62 64 69 67 66 62 64
3 5 5 12 2 11 10 10 6 13 13 13 12 20 18 16 13 10 10 10 11 10 11 14 16 13 14 16 18 24 31 34 37 39 40 38 37 33 38 52 56 54 58 59 67 68 72 66 67
7 4 4 3 3 9 10 12 11 1 21 18 12 21 18 14 13 12 9 10 11 11 12 15 17 19 21 25 23 22 26 37 40 41 45 45 42 42 42 40 45 58 64 56 67 70 73 69 67
15 13 7 8 5 2 11 6 4 15 21 23 22 19 18 17 14 12 9 8 9 10 13 19 21 24 25 26 25 28 33 34 41 48 47 43 48 48 46 46 44 49 58 68 59 73 75 68 63
11 17 16 7 6 2 4 10 12 13 11 15 17 18 15 16 14 11 6 9 14 19 20 21 19 21 19 15 22 29 35 43 43 45 41 46 51 54 53 47 48 50 54 65 70 63 76 72 67
14 6 11 3 5 7 6 7 10 7 9 8 7 10 10 13 11 10 11 16 18 17 17 17 22 26 32 38 44 51 50 40 42 41 45 48 56 54 54 51 50 54 57 66 68 76 76 69 70
10 16 4 9 6 5 3 4 5 11 7 6 3 4 7 9 13 9 15 18 20 18 20 26 31 32 37 45 51 52 45 36 40 43 49 54 55 52 52 52 60 67 66 71 69 69 65 69 69
12 13 7 7 7 2 4 5 12 10 8 6 2 3 10 10 14 17 22 23 22 25 29 34 39 46 47 49 47 46 41 39 42 46 50 55 53 49 51 57 60 56 63 65 67 63 64 69 63
Wind_Direction
307 285 306 304 28 79 270 263 140 39 49 47 55 76 177 48 61 137 147 216 204 214 207 204 199 191 184 179 177 176 175 175 178 181 182 182 183 182 157 132 144 130 103 97 101 112 123 127 123
320 325 294 271 112 36 275 183 87 106 116 69 37 40 41 98 97 139 165 189 219 214 231 221 202 198 191 185 181 179 179 178 179 184 187 191 193 191 188 182 190 157 56 60 86 118 134 134 130
320 294 284 167 197 191 279 344 131 124 114 88 61 18 358 81 100 144 157 165 208 225 247 231 206 201 197 190 187 185 184 182 184 188 194 196 198 200 200 200 200 221 255 339 84 142 146 138 132
326 311 254 111 262 269 241 274 71 42 52 33 22 35 76 68 136 152 94 155 190 233 256 256 209 202 200 196 193 192 190 189 190 195 199 201 202 209 208 208 210 221 231 219 208 177 162 148 137
302 269 281 267 276 283 325 52 76 63 29 16 2 324 110 76 127 135 92 83 185 220 256 258 211 204 204 201 199 199 198 198 198 201 204 206 207 213 217 217 216 229 233 231 200 196 182 162 147
281 213 328 262 286 301 287 66 87 79 46 349 55 41 84 143 234 10 99 124 163 224 254 265 241 210 209 206 205 204 204 205 206 209 211 213 214 218 221 226 225 228 233 233 214 199 198 187 167
207 88 236 269 291 315 282 126 91 103 90 326 63 122 151 176 200 281 335 51 175 206 240 251 250 220 217 214 210 209 210 210 213 216 217 220 222 223 224 228 235 233 231 231 220 208 206 209 188
246 130 283 257 274 277 325 14 120 49 357 9 20 155 197 206 240 265 283 306 199 202 230 241 241 233 230 219 216 212 213 215 215 218 220 222 226 229 231 231 230 232 234 232 222 217 216 213 194
264 272 253 258 282 279 339 359 342 349 359 342 338 343 347 221 203 244 260 259 271 216 232 242 242 243 245 225 219 216 216 219 220 221 225 227 228 229 232 230 229 232 233 231 224 221 222 211 187
199 188 246 235 262 284 309 340 332 351 343 341 335 312 330 256 244 251 242 252 241 269 253 266 263 255 238 224 220 220 218 220 223 225 226 228 229 232 232 229 229 230 233 230 223 221 219 205 182
246 225 238 259 272 303 303 330 326 344 319 316 310 308 303 295 281 246 235 249 278 273 258 259 255 272 264 230 221 222 222 222 224 226 226 228 229 233 230 230 229 230 231 229 222 222 216 203 180
280 270 266 279 290 287 284 295 298 305 290 294 291 286 282 276 267 265 267 259 257 255 262 254 251 254 273 255 227 228 228 221 222 225 224 224 227 228 232 237 238 236 234 230 223 220 212 197 178
296 295 304 305 312 297 320 315 290 288 283 282 281 277 277 249 215 287 305 276 247 273 255 248 249 257 260 258 248 232 230 234 228 225 225 224 221 222 233 241 237 237 236 232 226 214 210 200 189
284 288 288 294 294 300 300 297 292 279 276 275 276 262 175 113 341 293 281 290 281 297 246 251 252 266 271 267 264 253 238 236 238 238 237 230 228 227 236 239 244 243 240 236 224 215 211 212 206
291 315 304 297 293 290 285 279 262 269 273 296 249 210 144 278 227 227 262 261 265 272 292 254 270 261 262 268 259 251 249 247 246 243 243 242 231 229 237 247 246 249 247 240 223 212 210 211 211
335 289 282 258 263 261 235 258 267 260 183 302 204 172 229 216 74 98 99 103 138 86 47 46 244 263 258 269 265 258 259 252 255 252 249 244 241 240 236 239 246 250 249 238 226 218 215 214 212
226 254 264 282 251 249 207 220 231 225 206 224 230 210 269 119 104 109 121 110 94 71 41 59 49 290 284 266 261 258 256 248 252 255 258 254 248 242 238 236 239 242 243 236 228 223 223 217 206
201 229 245 244 287 1 308 273 271 262 259 253 262 262 236 114 92 99 103 105 111 91 59 44 67 56 314 273 266 259 254 247 249 255 255 261 255 245 237 234 240 233 232 227 224 227 224 223 208
258 273 277 278 290 322 280 278 281 282 271 259 262 290 124 103 93 92 87 82 96 111 95 14 24 48 35 331 315 295 274 269 258 257 259 258 256 256 247 237 242 232 226 224 224 224 220 212 212
231 242 256 276 285 283 302 297 305 298 268 244 140 119 112 101 89 80 68 49 43 31 356 322 342 350 347 326 306 310 292 285 276 273 265 260 258 263 252 250 247 233 227 224 222 220 213 210 208
234 234 241 247 273 313 308 302 306 300 64 100 113 113 105 95 92 73 64 58 40 33 360 335 333 333 328 329 318 312 304 286 287 281 269 267 271 266 259 254 253 242 230 227 223 222 220 206 203
237 250 266 271 278 254 119 277 217 274 112 99 108 105 100 94 90 76 68 56 48 29 355 345 337 327 320 305 312 320 312 305 304 296 290 286 276 268 262 258 250 250 236 233 225 224 222 215 205
235 243 292 296 286 295 216 277 227 238 156 147 132 111 98 88 84 75 54 31 8 358 5 3 356 343 328 321 295 308 310 313 315 308 310 298 287 268 270 264 258 250 241 241 226 219 219 216 215
266 196 226 269 265 262 211 211 229 221 176 148 131 121 114 104 86 59 32 31 22 2 338 323 317 322 325 324 302 298 304 308 310 312 308 305 302 292 279 265 265 255 252 244 227 220 221 213 215
199 152 246 248 222 241 191 204 240 85 138 133 131 121 111 92 69 48 31 12 16 4 0 356 343 333 318 307 302 294 281 290 303 306 308 303 300 295 289 279 264 255 252 243 232 224 219 216 211
209 198 191 208 208 232 215 236 199 114 105 112 107 93 80 64 48 37 18 19 21 7 341 340 340 334 323 308 293 293 301 301 298 301 301 298 299 294 288 280 275 260 253 254 236 227 222 214 211
195 218 212 280 306 16 220 77 65 78 73 73 73 62 52 30 14 5 38 7 345 335 336 330 323 317 312 312 311 302 297 303 300 299 301 298 302 294 293 283 270 266 253 248 239 231 219 212 208
194 151 206 167 200 229 207 212 156 131 93 65 49 45 25 3 354 356 347 353 350 341 335 323 318 314 309 304 304 305 307 302 294 292 302 304 304 296 291 282 273 265 257 246 234 227 213 206 205
180 208 188 178 176 186 174 233 154 117 105 87 59 24 2 5 340 17 8 355 346 342 333 334 332 325 318 315 313 310 309 300 294 295 305 308 304 294 285 283 281 272 255 236 229 219 206 203 202
201 206 160 194 235 177 137 254 150 134 136 139 176 32 339 358 22 4 356 350 345 337 331 330 323 320 320 317 314 310 303 301 296 302 306 308 302 288 285 287 279 269 249 226 218 214 203 204 199
Height
1524 1524 1521 1522 1531 1528 1530 1509 1489 1493 1491 1489 1491 1494 1498 1500 1502 1516 1509 1508 1509 1510 1512 1514 1516 1517 1520 1522 1526 1528 1529 1531 1534 1537 1540 1542 1543 1545 1547 1547 1548 1548 1550 1550 1551 1553 1554 1554 1555
1523 1522 1520 1520 1533 1542 1530 1496 1497 1491 1489 1490 1491 1493 1496 1504 1501 1504 1507 1507 1508 1510 1512 1513 1515 1518 1519 1521 1524 1527 1529 1531 1533 1536 1538 1541 1543 1545 1546 1547 1548 1549 1549 1550 1550 1552 1553 1554 1555
1521 1521 1521 1520 1527 1536 1524 1492 1490 1488 1488 1490 1493 1495 1496 1504 1504 1504 1506 1506 1507 1509 1512 1514 1514 1517 1519 1521 1523 1526 1529 1531 1532 1535 1538 1540 1542 1544 1546 1547 1548 1549 1550 1550 1551 1552 1553 1554 1554
1520 1520 1519 1524 1525 1508 1504 1493 1487 1488 1490 1491 1494 1497 1501 1504 1502 1503 1506 1507 1505 1508 1510 1513 1514 1516 1518 1520 1523 1525 1528 1530 1532 1535 1536 1539 1541 1544 1545 1546 1548 1549 1550 1550 1551 1552 1553 1554 1555
1520 1519 1525 1524 1516 1503 1497 1489 1487 1490 1491 1492 1494 1498 1501 1505 1503 1505 1506 1507 1506 1507 1507 1510 1512 1515 1517 1519 1521 1524 1527 1529 1531 1533 1535 1538 1540 1542 1544 1545 1547 1549 1549 1550 1551 1552 1553 1553 1555
1519 1515 1530 1533 1517 1503 1497 1492 1488 1489 1491 1492 1496 1499 1505 1504 1504 1504 1505 1506 1508 1507 1506 1507 1512 1514 1517 1519 1521 1524 1526 1530 1532 1534 1535 1537 1539 1540 1542 1544 1545 1546 1548 1549 1550 1551 1553 1553 1554
1517 1520 1526 1520 1516 1506 1494 1493 1491 1492 1492 1493 1496 1499 1503 1503 1502 1503 1504 1505 1506 1506 1505 1506 1510 1513 1516 1519 1520 1523 1526 1527 1531 1533 1535 1538 1539 1539 1541 1543 1544 1545 1546 1548 1549 1550 1551 1552 1554
1514 1516 1518 1515 1516 1509 1493 1496 1493 1494 1495 1495 1495 1498 1499 1496 1498 1499 1500 1502 1504 1503 1504 1504 1506 1510 1513 1515 1517 1520 1523 1525 1527 1530 1532 1533 1536 1538 1539 1541 1542 1544 1545 1547 1548 1549 1550 1550 1552
1512 1520 1523 1515 1509 1501 1493 1495 1493 1495 1493 1493 1495 1497 1498 1493 1495 1496 1498 1499 1500 1499 1502 1502 1504 1507 1509 1511 1514 1517 1520 1523 1526 1527 1529 1531 1533 1534 1536 1538 1539 1542 1543 1544 1546 1547 1547 1549 1551
1509 1517 1510 1502 1500 1499 1494 1494 1492 1491 1491 1491 1493 1494 1496 1497 1494 1493 1494 1495 1496 1497 1497 1499 1501 1502 1505 1507 1511 1514 1517 1519 1521 1523 1526 1527 1530 1531 1532 1533 1536 1538 1540 1542 1544 1545 1546 1547 1548
1504 1508 1500 1497 1496 1494 1492 1491 1493 1492 1491 1493 1493 1494 1494 1494 1494 1491 1489 1490 1491 1493 1493 1495 1497 1499 1500 1502 1506 1509 1512 1514 1517 1520 1522 1525 1526 1527 1528 1530 1532 1535 1536 1539 1541 1542 1544 1545 1547
1504 1497 1496 1495 1493 1492 1490 1488 1488 1490 1488 1490 1491 1491 1490 1490 1490 1490 1490 1490 1488 1488 1489 1490 1493 1495 1498 1499 1501 1504 1507 1510 1512 1514 1517 1521 1523 1525 1526 1528 1530 1532 1533 1536 1537 1539 1541 1543 1545
1497 1494 1493 1492 1491 1488 1487 1488 1488 1488 1486 1486 1486 1486 1485 1485 1486 1487 1488 1487 1488 1486 1487 1488 1489 1491 1494 1495 1497 1499 1502 1505 1507 1510 1512 1515 1517 1518 1520 1521 1525 1527 1531 1532 1535 1536 1536 1539 1540
1495 1494 1492 1490 1488 1488 1486 1485 1487 1484 1481 1480 1480 1481 1482 1482 1484 1485 1486 1485 1486 1485 1484 1486 1487 1489 1491 1493 1495 1496 1499 1502 1505 1508 1510 1514 1516 1517 1517 1519 1521 1523 1525 1527 1530 1534 1535 1535 1535
1494 1494 1489 1488 1486 1485 1484 1487 1483 1477 1477 1475 1475 1478 1479 1481 1481 1482 1483 1484 1484 1485 1480 1481 1483 1485 1487 1489 1491 1493 1496 1499 1501 1505 1507 1510 1513 1515 1515 1517 1518 1521 1523 1525 1527 1528 1529 1533 1535
1496 1494 1498 1486 1482 1478 1485 1491 1476 1472 1473 1473 1474 1475 1477 1480 1480 1479 1480 1480 1480 1481 1478 1478 1484 1485 1487 1487 1488 1489 1491 1494 1496 1499 1501 1504 1506 1509 1511 1510 1513 1517 1520 1522 1525 1525 1525 1527 1529
1496 1502 1496 1488 1472 1473 1474 1479 1468 1467 1468 1470 1471 1473 1474 1474 1474 1476 1476 1476 1477 1479 1477 1479 1483 1486 1488 1488 1489 1489 1489 1490 1491 1492 1494 1498 1500 1502 1503 1503 1505 1509 1512 1515 1517 1520 1522 1523 1524
1496 1496 1492 1488 1468 1469 1472 1472 1468 1465 1464 1465 1467 1470 1471 1471 1473 1475 1474 1475 1476 1478 1479 1481 1483 1486 1488 1489 1490 1489 1488 1487 1487 1486 1486 1491 1494 1494 1494 1496 1499 1499 1502 1504 1508 1513 1518 1522 1523
1482 1484 1485 1476 1469 1471 1472 1471 1465 1458 1457 1459 1463 1466 1470 1470 1472 1472 1471 1472 1474 1475 1480 1482 1484 1486 1487 1486 1486 1486 1487 1489 1487 1485 1483 1482 1485 1489 1490 1488 1489 1489 1494 1495 1496 1502 1507 1514 1517
1478 1481 1480 1473 1466 1468 1471 1469 1461 1456 1452 1453 1460 1466 1470 1468 1469 1470 1470 1471 1473 1475 1480 1482 1483 1484 1486 1486 1485 1483 1482 1481 1479 1481 1481 1479 1478 1479 1480 1481 1481 1482 1481 1488 1487 1489 1494 1500 1503
1470 1473 1474 1475 1468 1465 1468 1470 1465 1454 1449 1449 1458 1462 1467 1466 1467 1469 1470 1473 1474 1475 1478 1480 1480 1482 1482 1479 1479 1479 1478 1477 1477 1475 1472 1471 1472 1471 1471 1471 1472 1471 1471 1470 1477 1479 1481 1482 1489
1469 1460 1462 1467 1473 1490 1466 1496 1464 1455 1461 1459 1460 1462 1464 1465 1467 1469 1471 1473 1472 1474 1476 1475 1477 1481 1479 1477 1474 1474 1473 1473 1472 1470 1466 1465 1460 1461 1461 1460 1457 1458 1460 1460 1459 1463 1466 1475 1472
1458 1457 1462 1466 1473 1476 1475 1484 1459 1446 1462 1460 1459 1460 1462 1465 1467 1469 1472 1471 1472 1473 1473 1474 1475 1475 1474 1476 1475 1471 1469 1466 1465 1466 1462 1459 1457 1453 1451 1448 1449 1449 1444 1448 1447 1448 1456 1455 1462
1449 1457 1460 1466 1472 1480 1473 1477 1458 1443 1442 1454 1457 1460 1462 1464 1466 1468 1469 1469 1469 1471 1473 1474 1473 1472 1471 1471 1471 1468 1463 1460 1456 1455 1453 1450 1448 1446 1444 1442 1440 1435 1434 1433 1434 1437 1439 1443 1443
1449 1460 1487 1491 1492 1477 1452 1464 1447 1433 1434 1445 1453 1459 1462 1464 1465 1467 1469 1470 1470 1471 1470 1468 1467 1467 1468 1467 1466 1464 1459 1454 1449 1447 1442 1438 1436 1433 1431 1431 1428 1426 1424 1417 1425 1425 1426 1429 1432
1441 1450 1475 1484 1481 1465 1446 1459 1440 1438 1444 1450 1454 1459 1462 1465 1467 1468 1468 1468 1468 1467 1466 1464 1463 1461 1461 1460 1459 1456 1452 1448 1445 1440 1434 1429 1423 1422 1419 1416 1416 1414 1412 1413 1397 1410 1410 1419 1424
1441 1443 1442 1454 1450 1471 1458 1451 1447 1446 1451 1452 1456 1458 1461 1463 1465 1466 1465 1464 1463 1462 1460 1458 1457 1456 1455 1453 1450 1447 1444 1439 1432 1427 1424 1419 1413 1408 1403 1403 1400 1396 1396 1397 1396 1383 1394 1399 1407
1423 1432 1454 1463 1486 1477 1455 1446 1451 1454 1455 1455 1457 1458 1460 1461 1462 1463 1461 1460 1459 1458 1456 1454 1453 1450 1448 1445 1441 1435 1430 1426 1421 1414 1409 1405 1398 1392 1388 1383 1382 1379 1376 1376 1372 1371 1367 1376 1388
1423 1429 1436 1444 1460 1470 1476 1464 1448 1452 1453 1454 1456 1456 1457 1459 1459 1460 1460 1458 1456 1452 1450 1447 1445 1443 1439 1435 1429 1423 1417 1412 1407 1404 1398 1390 1383 1376 1370 1366 1362 1356 1352 1351 1355 1363 1357 1363 1371
1408 1420 1434 1445 1460 1467 1477 1474 1447 1449 1450 1450 1452 1454 1455 1454 1455 1455 1453 1452 1450 1447 1443 1441 1438 1434 1429 1425 1419 1411 1405 1401 1397 1391 1386 1378 1368 1361 1353 1346 1337 1328 1327 1331 1335 1344 1345 1356 1360